Flag for Malaysia Weather past 2 weeks in Kota Kinabalu, Malaysia

Now
81 °F

Partly cloudy.


Feels Like: 87 °F
Forecast: 77 / 91 °F
Wind: 1 mph from East

Location: Kota Kinabalu Airport

Current Time: Mar 30, 2015 at 1:06:10 AM

Latest Report: Mar 30, 2015 at 12:30 AM


Visibility: N/A

Pressure: 29.80 "Hg

Humidity: 89%

Dew point: 77 °F

Location of Kota KinabaluLocation

Historic Weather in Kota Kinabalu — Graph

°F

Kota Kinabalu temperature yesterday

Maximum temperature yesterday: 93 °F (at 2:00 PM)
Minimum temperature yesterday: 79 °F (at 3:00 AM)
Average temperature yesterday: 84 °F

Past Weeks' High & Low Weather Summary

 TemperatureHumidityPressure
High93 °F (Mar 29, 2:00 PM)94% (Mar 18, 3:00 AM)29.98 "Hg (Mar 18, 3:00 AM)
Low73 °F (Mar 17, 6:30 AM)49% (Mar 22, 11:00 AM)29.74 "Hg (Mar 28, 5:00 PM)
Average82 °F79%29.85 "Hg
* Reported Midnight between Mar 14 and Mar 15 — Midnight between Mar 29 and Mar 30, Kota Kinabalu, Weather by CustomWeather, © 2015

Note: Actual official high and low records may vary slightly from our data, if they occured in-between our weather recording intervals... More about our weather records

Advertising

Kota Kinabalu weather history for previous 24 hours

 ConditionsComfort  
Time TempWeatherWind HumidityBarometerVisibility
12:00 AM
Mon, Mar 30
81 °FPartly cloudy.2 mph89%29.83 "HgN/A
11:30 PM
Sun, Mar 29
81 °FPartly cloudy.3 mph89%29.83 "HgN/A
11:00 PM82 °FPartly cloudy.5 mph84%29.83 "HgN/A
10:30 PM82 °FPartly cloudy.2 mph84%29.83 "HgN/A
10:00 PM82 °FPartly cloudy.3 mph84%29.83 "HgN/A
9:30 PM82 °FPartly cloudy.2 mph89%29.83 "HgN/A
9:00 PM84 °FPartly cloudy.1 mph84%29.83 "HgN/A
8:30 PM84 °FPartly cloudy.No wind84%29.80 "HgN/A
8:00 PM84 °FPartly cloudy.3 mph79%29.80 "Hg6 mi
7:30 PM84 °FPartly cloudy.2 mph79%29.77 "Hg6 mi
7:00 PM84 °FPartly cloudy.5 mph79%29.77 "Hg6 mi
6:30 PM84 °FPartly cloudy.1 mph84%29.77 "Hg6 mi
6:00 PM84 °FBroken clouds.3 mph79%29.77 "Hg6 mi
5:30 PM86 °FBroken clouds.6 mph75%29.74 "Hg6 mi
5:00 PM86 °FBroken clouds.7 mph75%29.74 "Hg6 mi
4:30 PM88 °FBroken clouds.7 mph70%29.74 "Hg6 mi
4:00 PM90 °FBroken clouds.7 mph67%29.74 "Hg6 mi
3:30 PM90 °FBroken clouds.7 mph63%29.74 "Hg6 mi
3:00 PM88 °FBroken clouds.8 mph75%29.74 "Hg6 mi
2:30 PM93 °FBroken clouds.3 mph67%29.74 "Hg6 mi
2:00 PM93 °FBroken clouds.3 mph59%29.77 "Hg3 mi
1:30 PM90 °FBroken clouds.3 mph71%29.77 "Hg3 mi
1:00 PM91 °FBroken clouds.3 mph67%29.77 "Hg3 mi
12:30 PM90 °FBroken clouds.3 mph71%29.80 "Hg3 mi
12:00 PM88 °FBroken clouds.6 mph70%29.80 "Hg3 mi
11:30 AM88 °FBroken clouds.6 mph70%29.83 "Hg3 mi
11:00 AM90 °FPartly sunny.5 mph71%29.83 "Hg3 mi
10:30 AM90 °FPartly sunny.3 mph75%29.83 "Hg3 mi
10:00 AM90 °FPartly sunny.3 mph71%29.83 "Hg3 mi
9:30 AM88 °FPartly sunny.2 mph75%29.83 "Hg2 mi
9:00 AM86 °FPartly sunny.3 mph79%29.83 "Hg2 mi
8:30 AM84 °FPartly sunny.5 mph79%29.83 "Hg2 mi
8:00 AM84 °FPartly sunny.2 mph74%29.83 "Hg2 mi
7:30 AM81 °FPartly sunny.3 mph84%29.83 "Hg6 mi
7:00 AM81 °FBroken clouds.3 mph84%29.80 "HgN/A
6:30 AM79 °FBroken clouds.3 mph89%29.80 "HgN/A
6:00 AM79 °FPassing clouds.3 mph84%29.77 "HgN/A
5:30 AM79 °FPassing clouds.6 mph84%29.77 "HgN/A
5:00 AM79 °FPassing clouds.5 mph84%29.80 "HgN/A
4:00 AM79 °FPassing clouds.6 mph84%29.77 "HgN/A
3:30 AM79 °FPassing clouds.1 mph84%29.77 "HgN/A
3:00 AM79 °FPassing clouds.2 mph84%29.77 "HgN/A
2:30 AM81 °FPassing clouds.1 mph89%29.77 "HgN/A
2:00 AM81 °FPassing clouds.No wind84%29.80 "HgN/A
1:30 AM81 °FPassing clouds.1 mph84%29.80 "HgN/A
1:00 AM81 °FPassing clouds.2 mph84%29.80 "HgN/A
Weather by CustomWeather, © 2015

See weather overviewHow to use our weather pages